Terug naar catalogus

STARLINK-5634

ActiefCommunicatieVLEO
NORAD 55439·PAYLOAD·🇺🇸 United States

Gelanceerd Jan 31, 2023 vanaf Vandenberg Space Force Base

Loading…

Volgende Passages (komende 24 uur)

TLE

VersSource: CelesTrak SupGP

Epoch: Sep 14, 2026, 21:54 UTC

1 55439C 23014BA  26257.91298611 -.00046088  00000+0 -38630-2 0  2571
2 55439  70.0018 347.4314 0003196 272.1118 342.9229 14.98346701    16

Volg STARLINK-5634 in realtime met AllMySat

Download on the App Store